Location: Audruicq
(50.8780°N, 2.0797°E)
Time: 20:53:31
(UTC+00:00)

Cosmos 841 Rocket - Pass Details

Date: 15 May 2026
Orbit: 741 x 767 km, 74.0° (Epoch: 8 June)

Event Time Altitude Azimuth Distance (km) Brightness Sun altitude
Exits shadow 23:27:22 33° 214° (SW) 1,266 4.2 -19.9°
Maximum altitude 23:29:46 77° 295° (WNW) 787 3.5 -20.0°
Drops below altitude 10° 23:35:02 10° 22° (NNE) 2,314 6.9 -20.0°
Sets 23:37:26 0° 24° (NNE) 3,247 7.8 -20.0°
